• In Germany
  • List of Countries
  • For 7 days
  • Water Temperature
  • Satellite Maps
  • Weather Map
  • Weather Widgets
  • user-avatar
    Login

    Hourly Weather Sankt Polten

    Today, 27 June, Tuesday

    Time Temperature Precipitation Wind Pressure Humidity
    00:00 +19°C° 0 mm 1 mps 733 mmHg 89%
    01:00 +19°C° 0 mm 1 mps 733 mmHg 87%
    02:00 +18°C° 0 mm 1 mps 732 mmHg 89%
    03:00 +18°C° 0 mm 1 mps 732 mmHg 90%
    04:00 +18°C° 0 mm 1 mps 732 mmHg 91%
    05:00 +20°C° 0 mm 1 mps 732 mmHg 86%
    06:00 +22°C° 0 mm 1 mps 732 mmHg 80%
    07:00 +24°C° 0 mm 1 mps 733 mmHg 74%
    08:00 +25°C° 0 mm 1 mps 733 mmHg 69%
    09:00 +27°C° 0 mm 1 mps 733 mmHg 63%
    10:00 +28°C° 0 mm 1 mps 733 mmHg 57%
    11:00 +29°C° 0.2 mm 2 mps 732 mmHg 54%
    12:00 +30°C° 0.2 mm 2 mps 732 mmHg 52%
    13:00 +30°C° 0 mm 2 mps 732 mmHg 50%
    14:00 +30°C° 0.6 mm 2 mps 731 mmHg 51%
    15:00 +30°C° 0.6 mm 2 mps 731 mmHg 51%
    16:00 +30°C° 0.6 mm 2 mps 731 mmHg 52%
    17:00 +29°C° 0.3 mm 2 mps 730 mmHg 60%
    18:00 +27°C° 0.3 mm 1 mps 730 mmHg 68%
    19:00 +26°C° 0.3 mm 1 mps 729 mmHg 76%
    20:00 +24°C° 0 mm 1 mps 729 mmHg 80%
    21:00 +22°C° 0 mm 1 mps 729 mmHg 84%
    22:00 +20°C° 0 mm 1 mps 729 mmHg 88%
    23:00 +20°C° 0 mm 1 mps 729 mmHg 88%

    Tomorrow, 28 June, Wednesday

    Time Temperature Precipitation Wind Pressure Humidity
    00:00 +19°C° 0 mm 1 mps 729 mmHg 88%
    01:00 +19°C° 0 mm 1 mps 729 mmHg 89%
    02:00 +19°C° 0 mm 1 mps 728 mmHg 88%
    03:00 +18°C° 0 mm 1 mps 728 mmHg 88%
    04:00 +18°C° 0 mm 1 mps 727 mmHg 88%
    05:00 +20°C° 0 mm 1 mps 727 mmHg 82%
    06:00 +21°C° 0 mm 2 mps 727 mmHg 77%
    07:00 +24°C° 0 mm 2 mps 727 mmHg 71%
    08:00 +26°C° 0 mm 2 mps 727 mmHg 63%
    09:00 +28°C° 0 mm 2 mps 726 mmHg 56%
    10:00 +30°C° 0 mm 3 mps 726 mmHg 49%
    11:00 +31°C° 0 mm 3 mps 726 mmHg 46%
    12:00 +33°C° 0 mm 3 mps 725 mmHg 43%
    13:00 +34°C° 0 mm 4 mps 725 mmHg 41%
    14:00 +33°C° 0.2 mm 4 mps 725 mmHg 43%
    15:00 +33°C° 0.2 mm 4 mps 724 mmHg 44%
    16:00 +33°C° 0.2 mm 4 mps 724 mmHg 46%
    17:00 +30°C° 0.3 mm 3 mps 724 mmHg 56%
    18:00 +28°C° 0.3 mm 2 mps 723 mmHg 67%
    19:00 +26°C° 0.3 mm 2 mps 723 mmHg 77%
    20:00 +25°C° 0.6 mm 2 mps 723 mmHg 80%
    21:00 +23°C° 0.6 mm 2 mps 723 mmHg 82%
    22:00 +21°C° 0.6 mm 2 mps 723 mmHg 85%
    23:00 +21°C° 0.2 mm 2 mps 722 mmHg 86%

    Day after tomorrow, 29 June, Thursday

    Time Temperature Precipitation Wind Pressure Humidity
    00:00 +20°C° 0.2 mm 2 mps 722 mmHg 86%
    01:00 +19°C° 0.2 mm 2 mps 721 mmHg 87%
    02:00 +19°C° 0.1 mm 2 mps 721 mmHg 89%
    03:00 +19°C° 0.1 mm 2 mps 721 mmHg 91%
    04:00 +19°C° 0.1 mm 2 mps 720 mmHg 92%
    05:00 +19°C° 0.4 mm 2 mps 721 mmHg 90%
    06:00 +20°C° 0.4 mm 3 mps 721 mmHg 87%
    07:00 +21°C° 0.4 mm 3 mps 721 mmHg 84%
    08:00 +21°C° 0.5 mm 4 mps 721 mmHg 80%
    09:00 +22°C° 0.5 mm 5 mps 722 mmHg 77%
    10:00 +22°C° 0.5 mm 6 mps 722 mmHg 73%
    11:00 +23°C° 0.3 mm 6 mps 723 mmHg 70%
    12:00 +23°C° 0.3 mm 5 mps 723 mmHg 66%
    13:00 +25°C° 0.3 mm 5 mps 724 mmHg 63%
    14:00 +25°C° 0.3 mm 5 mps 724 mmHg 64%
    15:00 +25°C° 0.3 mm 4 mps 724 mmHg 65%
    16:00 +25°C° 0.3 mm 4 mps 724 mmHg 66%
    17:00 +24°C° 0 mm 3 mps 725 mmHg 71%
    18:00 +23°C° 0 mm 2 mps 725 mmHg 75%
    19:00 +21°C° 0 mm 2 mps 725 mmHg 80%
    20:00 +20°C° 0.1 mm 2 mps 725 mmHg 82%
    21:00 +19°C° 0.1 mm 2 mps 726 mmHg 84%
    22:00 +18°C° 0.1 mm 2 mps 726 mmHg 86%
    23:00 +17°C° 0.1 mm 2 mps 727 mmHg 87%

    30 June, Friday

    Time Temperature Precipitation Wind Pressure Humidity
    00:00 +17°C° 0.1 mm 3 mps 727 mmHg 87%
    01:00 +17°C° 0.1 mm 3 mps 727 mmHg 88%
    02:00 +16°C° 0 mm 3 mps 728 mmHg 88%
    03:00 +14°C° 0 mm 3 mps 728 mmHg 89%
    04:00 +15°C° 0 mm 2 mps 728 mmHg 89%
    05:00 +15°C° 0 mm 2 mps 729 mmHg 86%
    06:00 +16°C° 0 mm 3 mps 729 mmHg 83%
    07:00 +17°C° 0 mm 3 mps 729 mmHg 80%
    08:00 +17°C° 0.1 mm 3 mps 730 mmHg 77%
    09:00 +18°C° 0.1 mm 4 mps 730 mmHg 74%
    10:00 +18°C° 0.1 mm 4 mps 731 mmHg 72%
    11:00 +20°C° 0.1 mm 4 mps 731 mmHg 66%
    12:00 +21°C° 0.1 mm 4 mps 731 mmHg 59%
    13:00 +22°C° 0.1 mm 3 mps 731 mmHg 53%
    14:00 +24°C° 0.1 mm 3 mps 731 mmHg 51%
    15:00 +25°C° 0.1 mm 2 mps 731 mmHg 50%
    16:00 +25°C° 0.1 mm 2 mps 731 mmHg 48%
    17:00 +24°C° 0 mm 1 mps 731 mmHg 56%
    18:00 +23°C° 0 mm 1 mps 731 mmHg 64%
    19:00 +21°C° 0 mm 1 mps 730 mmHg 72%
    20:00 +20°C° 0.1 mm 1 mps 731 mmHg 75%
    21:00 +18°C° 0.1 mm 1 mps 731 mmHg 78%
    22:00 +16°C° 0.1 mm 1 mps 731 mmHg 81%
    23:00 +16°C° 0.2 mm 1 mps 731 mmHg 82%

    1 July, Saturday

    Time Temperature Precipitation Wind Pressure Humidity
    00:00 +16°C° 0.2 mm 2 mps 731 mmHg 83%
    01:00 +16°C° 0.2 mm 2 mps 731 mmHg 84%
    02:00 +16°C° 0.2 mm 2 mps 731 mmHg 87%
    03:00 +15°C° 0.2 mm 2 mps 731 mmHg 89%
    04:00 +15°C° 0.2 mm 2 mps 731 mmHg 91%
    05:00 +16°C° 0.2 mm 2 mps 731 mmHg 90%
    06:00 +16°C° 0.2 mm 2 mps 732 mmHg 89%
    07:00 +17°C° 0.2 mm 2 mps 732 mmHg 88%
    08:00 +18°C° 0.1 mm 2 mps 732 mmHg 77%
    09:00 +20°C° 0.1 mm 2 mps 732 mmHg 66%
    10:00 +22°C° 0.1 mm 3 mps 733 mmHg 55%
    11:00 +24°C° 0.1 mm 3 mps 733 mmHg 53%
    12:00 +25°C° 0.1 mm 3 mps 733 mmHg 50%
    13:00 +25°C° 0.1 mm 3 mps 732 mmHg 47%
    14:00 +25°C° 0.2 mm 3 mps 732 mmHg 48%
    15:00 +25°C° 0.2 mm 3 mps 732 mmHg 49%
    16:00 +25°C° 0.2 mm 2 mps 732 mmHg 51%
    17:00 +24°C° 0.1 mm 2 mps 732 mmHg 59%
    18:00 +23°C° 0.1 mm 2 mps 732 mmHg 66%
    19:00 +20°C° 0.1 mm 2 mps 732 mmHg 74%
    20:00 +19°C° 0.2 mm 2 mps 733 mmHg 79%
    21:00 +18°C° 0.2 mm 2 mps 733 mmHg 83%
    22:00 +16°C° 0.2 mm 3 mps 733 mmHg 87%
    23:00 +16°C° 0.1 mm 3 mps 733 mmHg 88%

    2 July, Sunday

    Time Temperature Precipitation Wind Pressure Humidity
    00:00 +16°C° 0.1 mm 3 mps 734 mmHg 89%
    01:00 +14°C° 0.1 mm 3 mps 734 mmHg 91%
    02:00 +14°C° 0 mm 3 mps 734 mmHg 91%
    03:00 +14°C° 0 mm 3 mps 734 mmHg 91%
    04:00 +14°C° 0 mm 3 mps 734 mmHg 92%
    05:00 +14°C° 0 mm 4 mps 734 mmHg 89%
    06:00 +15°C° 0 mm 4 mps 735 mmHg 86%
    07:00 +16°C° 0 mm 5 mps 735 mmHg 83%
    08:00 +15°C° 0.2 mm 5 mps 735 mmHg 83%
    09:00 +15°C° 0.2 mm 6 mps 736 mmHg 82%
    10:00 +15°C° 0.2 mm 6 mps 736 mmHg 81%
    11:00 +16°C° 0.1 mm 6 mps 736 mmHg 76%
    12:00 +16°C° 0.1 mm 6 mps 736 mmHg 72%
    13:00 +17°C° 0.1 mm 7 mps 736 mmHg 67%
    14:00 +19°C° 0.1 mm 6 mps 736 mmHg 65%
    15:00 +19°C° 0.1 mm 6 mps 736 mmHg 63%
    16:00 +20°C° 0.1 mm 6 mps 736 mmHg 60%
    17:00 +19°C° 0.1 mm 5 mps 736 mmHg 66%
    18:00 +17°C° 0.1 mm 5 mps 736 mmHg 71%
    19:00 +18°C° 0.1 mm 4 mps 736 mmHg 76%
    20:00 +17°C° 0 mm 4 mps 736 mmHg 81%
    21:00 +16°C° 0 mm 3 mps 736 mmHg 86%
    22:00 +14°C° 0 mm 3 mps 736 mmHg 91%
    23:00 +14°C° 0.1 mm 3 mps 736 mmHg 91%
    Show more